Time,TemperatureF,DewpointF,PressureIn,WindDirection,WindDirectionDegrees,WindSpeedMPH,WindSpeedGustMPH,Humidity,HourlyPrecipIn,Conditions,Clouds,dailyrainin,SoftwareType,DateUTC
2013-03-18 00:03:00,24.0,-99.9,30.90,SSE,167,6.0,14.0,-999,-99.99,,,-99.99,,2013-03-18 04:03:00,
2013-03-18 00:13:00,24.0,-99.9,30.20,SSE,167,6.0,14.0,-999,-99.99,,,-99.99,,2013-03-18 04:13:00,
2013-03-18 00:23:00,24.0,-99.9,30.89,South,170,4.0,19.0,-999,-99.99,,,-99.99,,2013-03-18 04:23:00,
2013-03-18 00:33:00,24.0,-99.9,30.89,South,170,4.0,19.0,-999,-99.99,,,-99.99,,2013-03-18 04:33:00,
2013-03-18 00:42:00,24.0,-99.9,30.19,South,170,4.0,19.0,-999,-99.99,,,-99.99,,2013-03-18 04:42:00,
2013-03-18 00:53:00,24.0,-99.9,30.89,South,170,4.0,19.0,-999,-99.99,,,-99.99,,2013-03-18 04:53:00,
2013-03-18 01:03:00,23.0,-99.9,30.89,South,171,4.0,14.0,-999,-99.99,,,-99.99,,2013-03-18 05:03:00,
2013-03-18 01:12:00,23.0,-99.9,30.19,South,171,4.0,14.0,-999,-99.99,,,-99.99,,2013-03-18 05:12:00,
2013-03-18 01:23:00,22.0,-99.9,30.88,SSE,152,12.0,21.0,-999,-99.99,,,-99.99,,2013-03-18 05:23:00,
2013-03-18 01:33:00,22.0,-99.9,30.18,SSE,152,12.0,21.0,-999,-99.99,,,-99.99,,2013-03-18 05:33:00,
2013-03-18 01:43:00,22.0,-99.9,30.18,SSE,152,12.0,21.0,-999,-99.99,,,-99.99,,2013-03-18 05:43:00,
2013-03-18 01:52:00,22.0,-99.9,30.88,SSE,152,12.0,21.0,-999,-99.99,,,-99.99,,2013-03-18 05:52:00,
2013-03-18 02:02:00,21.0,-99.9,30.87,SE,132,6.0,18.0,-999,-99.99,,,-99.99,,2013-03-18 06:02:00,
2013-03-18 02:12:00,21.0,-99.9,30.17,SE,132,6.0,18.0,-999,-99.99,,,-99.99,,2013-03-18 06:12:00,
2013-03-18 02:22:00,21.0,-99.9,30.17,SE,132,6.0,18.0,-999,-99.99,,,-99.99,,2013-03-18 06:22:00,
2013-03-18 02:32:00,20.0,-99.9,30.15,SE,135,7.0,19.0,-999,-99.99,,,-99.99,,2013-03-18 06:32:00,
2013-03-18 02:42:00,20.0,-99.9,30.85,SE,135,7.0,19.0,-999,-99.99,,,-99.99,,2013-03-18 06:42:00,
2013-03-18 02:53:00,20.0,-99.9,30.15,SE,135,7.0,19.0,-999,-99.99,,,-99.99,,2013-03-18 06:53:00,
2013-03-18 03:02:00,20.0,-99.9,30.85,SE,130,7.0,15.0,-999,-99.99,,,-99.99,,2013-03-18 07:02:00,
2013-03-18 03:13:00,20.0,-99.9,30.15,SE,130,7.0,15.0,-999,-99.99,,,-99.99,,2013-03-18 07:13:00,
2013-03-18 03:23:00,20.0,-99.9,30.15,SE,130,7.0,15.0,-999,-99.99,,,-99.99,,2013-03-18 07:23:00,
2013-03-18 03:33:00,20.0,-99.9,30.84,ESE,121,7.0,22.0,-999,-99.99,,,-99.99,,2013-03-18 07:33:00,
2013-03-18 03:43:00,20.0,-99.9,30.14,ESE,121,7.0,22.0,-999,-99.99,,,-99.99,,2013-03-18 07:43:00,
2013-03-18 03:53:00,20.0,-99.9,30.84,ESE,121,7.0,22.0,-999,-99.99,,,-99.99,,2013-03-18 07:53:00,
2013-03-18 04:02:00,19.0,-99.9,30.82,SE,138,9.0,19.0,-999,-99.99,,,-99.99,,2013-03-18 08:02:00,
2013-03-18 04:12:00,19.0,-99.9,30.12,SE,138,9.0,19.0,-999,-99.99,,,-99.99,,2013-03-18 08:12:00,
2013-03-18 04:22:00,20.0,-99.9,30.14,ESE,121,7.0,22.0,-999,-99.99,,,-99.99,,2013-03-18 08:22:00,
2013-03-18 04:32:00,19.0,-99.9,30.11,SE,138,9.0,22.0,-999,-99.99,,,-99.99,,2013-03-18 08:32:00,
2013-03-18 04:43:00,19.0,-99.9,30.81,SE,138,9.0,22.0,-999,-99.99,,,-99.99,,2013-03-18 08:43:00,
2013-03-18 04:53:00,19.0,-99.9,30.11,SE,138,9.0,22.0,-999,-99.99,,,-99.99,,2013-03-18 08:53:00,
2013-03-18 05:02:00,19.0,-99.9,30.79,SE,142,11.0,18.0,-999,-99.99,,,-99.99,,2013-03-18 09:02:00,
2013-03-18 05:13:00,19.0,-99.9,30.09,SE,142,11.0,18.0,-999,-99.99,,,-99.99,,2013-03-18 09:13:00,
2013-03-18 05:23:00,19.0,-99.9,30.09,SE,142,11.0,18.0,-999,-99.99,,,-99.99,,2013-03-18 09:23:00,
2013-03-18 05:33:00,20.0,-99.9,30.78,SE,125,8.0,22.0,-999,-99.99,,,-99.99,,2013-03-18 09:33:00,
2013-03-18 05:43:00,20.0,-99.9,30.78,SE,125,8.0,22.0,-999,-99.99,,,-99.99,,2013-03-18 09:43:00,
2013-03-18 05:53:00,20.0,-99.9,30.78,SE,125,8.0,22.0,-999,-99.99,,,-99.99,,2013-03-18 09:53:00,
2013-03-18 06:04:00,19.0,-99.9,30.08,SE,128,7.0,17.0,-999,-99.99,,,-99.99,,2013-03-18 10:04:00,
2013-03-18 06:13:00,19.0,-99.9,30.07,SE,128,7.0,17.0,-999,-99.99,,,-99.99,,2013-03-18 10:13:00,
2013-03-18 06:23:00,19.0,-99.9,30.07,SE,128,7.0,17.0,-999,-99.99,,,-99.99,,2013-03-18 10:23:00,
2013-03-18 06:33:00,20.0,-99.9,30.06,SE,137,6.0,18.0,-999,-99.99,,,-99.99,,2013-03-18 10:33:00,
2013-03-18 06:42:00,20.0,-99.9,30.06,SE,137,6.0,18.0,-999,-99.99,,,-99.99,,2013-03-18 10:42:00,
2013-03-18 06:53:00,20.0,-99.9,30.06,SE,137,6.0,18.0,-999,-99.99,,,-99.99,,2013-03-18 10:53:00,
2013-03-18 07:03:00,20.0,-99.9,30.76,SSE,147,5.0,16.0,-999,-99.99,,,-99.99,,2013-03-18 11:03:00,
2013-03-18 07:13:00,20.0,-99.9,30.06,SSE,147,5.0,16.0,-999,-99.99,,,-99.99,,2013-03-18 11:13:00,
2013-03-18 07:22:00,21.0,-99.9,30.74,ESE,117,7.0,16.0,-999,-99.99,,,-99.99,,2013-03-18 11:22:00,
2013-03-18 07:32:00,21.0,-99.9,30.74,ESE,117,7.0,16.0,-999,-99.99,,,-99.99,,2013-03-18 11:32:00,
2013-03-18 07:43:00,21.0,-99.9,30.04,ESE,117,7.0,16.0,-999,-99.99,,,-99.99,,2013-03-18 11:43:00,
2013-03-18 07:53:00,21.0,-99.9,30.04,ESE,117,7.0,16.0,-999,-99.99,,,-99.99,,2013-03-18 11:53:00,
2013-03-18 08:03:00,21.0,-99.9,30.71,ESE,122,6.0,21.0,-999,-99.99,,,-99.99,,2013-03-18 12:03:00,
2013-03-18 08:13:00,21.0,-99.9,30.01,ESE,122,6.0,21.0,-999,-99.99,,,-99.99,,2013-03-18 12:13:00,
2013-03-18 08:22:00,21.0,-99.9,30.74,ESE,117,7.0,16.0,-999,-99.99,,,-99.99,,2013-03-18 12:22:00,
2013-03-18 08:33:00,21.0,-99.9,30.04,ESE,117,7.0,16.0,-999,-99.99,,,-99.99,,2013-03-18 12:33:00,
2013-03-18 08:43:00,21.0,-99.9,30.04,ESE,117,7.0,16.0,-999,-99.99,,,-99.99,,2013-03-18 12:43:00,
2013-03-18 08:52:00,21.0,-99.9,30.04,ESE,117,7.0,16.0,-999,-99.99,,,-99.99,,2013-03-18 12:52:00,
2013-03-18 09:03:00,22.0,-99.9,30.69,ESE,106,7.0,18.0,-999,-99.99,,,-99.99,,2013-03-18 13:03:00,
2013-03-18 09:12:00,22.0,-99.9,29.99,ESE,106,7.0,18.0,-999,-99.99,,,-99.99,,2013-03-18 13:12:00,
2013-03-18 09:23:00,22.0,-99.9,29.99,ESE,106,7.0,18.0,-999,-99.99,,,-99.99,,2013-03-18 13:23:00,
2013-03-18 09:33:00,23.0,-99.9,30.67,ESE,110,9.0,23.0,-999,-99.99,,,-99.99,,2013-03-18 13:33:00,
2013-03-18 09:40:00,25.0,-99.9,29.96,ESE,115,4.0,13.0,-999,-99.99,,,-99.99,,2013-03-18 13:40:00,
2013-03-18 09:43:00,23.0,-99.9,29.97,ESE,110,9.0,23.0,-999,-99.99,,,-99.99,,2013-03-18 13:43:00,
2013-03-18 09:52:00,23.0,-99.9,29.97,ESE,110,9.0,23.0,-999,-99.99,,,-99.99,,2013-03-18 13:52:00,
2013-03-18 10:03:00,25.0,-99.9,30.66,ESE,115,4.0,13.0,-999,-99.99,,,-99.99,,2013-03-18 14:03:00,
2013-03-18 10:12:00,25.0,-99.9,29.96,ESE,115,4.0,13.0,-999,-99.99,,,-99.99,,2013-03-18 14:12:00,
2013-03-18 10:22:00,25.0,-99.9,29.96,ESE,115,4.0,13.0,-999,-99.99,,,-99.99,,2013-03-18 14:22:00,
2013-03-18 10:32:00,25.0,-99.9,29.96,ESE,115,4.0,13.0,-999,-99.99,,,-99.99,,2013-03-18 14:32:00,
2013-03-18 10:40:00,29.0,-99.9,29.92,East,101,6.0,13.0,-999,-99.99,,,-99.99,,2013-03-18 14:40:00,
2013-03-18 11:02:00,29.0,-99.9,30.62,East,101,6.0,13.0,-999,-99.99,,,-99.99,,2013-03-18 15:02:00,
2013-03-18 11:12:00,29.0,-99.9,29.92,East,101,6.0,13.0,-999,-99.99,,,-99.99,,2013-03-18 15:12:00,
2013-03-18 11:23:00,29.0,-99.9,29.92,East,101,6.0,13.0,-999,-99.99,,,-99.99,,2013-03-18 15:23:00,
2013-03-18 11:33:00,29.0,-99.9,29.92,East,101,6.0,13.0,-999,-99.99,,,-99.99,,2013-03-18 15:33:00,
2013-03-18 11:52:00,32.0,-99.9,29.89,SE,126,4.0,15.0,-999,-99.99,,,-99.99,,2013-03-18 15:52:00,
2013-03-18 12:03:00,32.0,-99.9,30.55,ESE,109,8.0,14.0,-999,-99.99,,,-99.99,,2013-03-18 16:03:00,
2013-03-18 12:12:00,32.0,-99.9,29.86,ESE,109,8.0,14.0,-999,-99.99,,,-99.99,,2013-03-18 16:12:00,
2013-03-18 12:23:00,32.0,-99.9,30.59,SE,126,4.0,15.0,-999,-99.99,,,-99.99,,2013-03-18 16:23:00,
2013-03-18 12:33:00,32.0,-99.9,29.89,SE,126,4.0,15.0,-999,-99.99,,,-99.99,,2013-03-18 16:33:00,
2013-03-18 12:42:00,32.0,-99.9,29.89,SE,126,4.0,15.0,-999,-99.99,,,-99.99,,2013-03-18 16:42:00,
2013-03-18 12:53:00,36.0,-99.9,30.51,ESE,113,8.0,15.0,-999,-99.99,,,-99.99,,2013-03-18 16:53:00,
2013-03-18 13:03:00,36.0,-99.9,30.48,East,84,12.0,15.0,-999,-99.99,,,-99.99,,2013-03-18 17:03:00,
2013-03-18 13:12:00,36.0,-99.9,30.48,East,84,12.0,15.0,-999,-99.99,,,-99.99,,2013-03-18 17:12:00,
2013-03-18 13:22:00,36.0,-99.9,29.79,East,84,12.0,15.0,-999,-99.99,,,-99.99,,2013-03-18 17:22:00,
2013-03-18 13:33:00,36.0,-99.9,30.51,ESE,113,8.0,15.0,-999,-99.99,,,-99.99,,2013-03-18 17:33:00,
2013-03-18 13:40:00,38.0,-99.9,29.74,East,95,8.0,15.0,-999,-99.99,,,-99.99,,2013-03-18 17:40:00,
2013-03-18 13:43:00,37.0,-99.9,30.43,East,96,10.0,18.0,-999,-99.99,,,-99.99,,2013-03-18 17:43:00,
2013-03-18 13:52:00,37.0,-99.9,29.74,East,96,10.0,18.0,-999,-99.99,,,-99.99,,2013-03-18 17:52:00,
2013-03-18 14:02:00,38.0,-99.9,30.43,East,95,8.0,15.0,-999,-99.99,,,-99.99,,2013-03-18 18:02:00,
2013-03-18 14:13:00,38.0,-99.9,29.74,East,95,8.0,15.0,-999,-99.99,,,-99.99,,2013-03-18 18:13:00,
2013-03-18 14:22:00,38.0,-99.9,29.74,East,95,8.0,15.0,-999,-99.99,,,-99.99,,2013-03-18 18:22:00,
2013-03-18 14:32:00,38.0,-99.9,29.74,East,95,8.0,15.0,-999,-99.99,,,-99.99,,2013-03-18 18:32:00,
2013-03-18 15:03:00,40.0,-99.9,30.37,East,100,5.0,12.0,-999,-99.99,,,-99.99,,2013-03-18 19:03:00,
2013-03-18 15:12:00,40.0,-99.9,29.68,East,100,5.0,12.0,-999,-99.99,,,-99.99,,2013-03-18 19:12:00,
2013-03-18 15:22:00,40.0,-99.9,30.37,East,100,5.0,17.0,-999,-99.99,,,-99.99,,2013-03-18 19:22:00,
2013-03-18 15:33:00,40.0,-99.9,30.37,East,100,5.0,17.0,-999,-99.99,,,-99.99,,2013-03-18 19:33:00,
2013-03-18 15:40:00,38.0,-99.9,29.63,ESE,114,7.0,20.0,-999,-99.99,,,-99.99,,2013-03-18 19:40:00,
2013-03-18 15:42:00,40.0,-99.9,30.37,East,100,5.0,17.0,-999,-99.99,,,-99.99,,2013-03-18 19:42:00,
2013-03-18 15:52:00,40.0,-99.9,29.68,East,100,5.0,17.0,-999,-99.99,,,-99.99,,2013-03-18 19:52:00,
2013-03-18 16:03:00,38.0,-99.9,29.68,ESE,114,7.0,20.0,-999,-99.99,,,-99.99,,2013-03-18 20:03:00,
2013-03-18 16:12:00,38.0,-99.9,29.63,ESE,114,7.0,20.0,-999,-99.99,,,-99.99,,2013-03-18 20:12:00,
2013-03-18 16:23:00,38.0,-99.9,29.63,ESE,114,7.0,20.0,-999,-99.99,,,-99.99,,2013-03-18 20:23:00,
2013-03-18 16:33:00,38.0,-99.9,29.63,ESE,114,7.0,20.0,-999,-99.99,,,-99.99,,2013-03-18 20:33:00,
2013-03-18 16:40:00,36.0,-99.9,29.61,ESE,121,6.0,15.0,-999,-99.99,,,-99.99,,2013-03-18 20:40:00,
2013-03-18 17:02:00,36.0,-99.9,30.30,ESE,121,6.0,15.0,-999,-99.99,,,-99.99,,2013-03-18 21:02:00,
2013-03-18 17:12:00,36.0,-99.9,29.61,ESE,121,6.0,15.0,-999,-99.99,,,-99.99,,2013-03-18 21:12:00,
2013-03-18 17:23:00,36.0,-99.9,29.61,ESE,121,6.0,15.0,-999,-99.99,,,-99.99,,2013-03-18 21:23:00,
2013-03-18 17:33:00,36.0,-99.9,29.61,ESE,121,6.0,15.0,-999,-99.99,,,-99.99,,2013-03-18 21:33:00,
2013-03-18 17:40:00,31.0,-99.9,29.62,SE,135,8.0,16.0,-999,-99.99,,,-99.99,,2013-03-18 21:40:00,
2013-03-18 18:03:00,31.0,-99.9,30.31,SE,135,8.0,16.0,-999,-99.99,,,-99.99,,2013-03-18 22:03:00,
2013-03-18 18:13:00,31.0,-99.9,29.62,SE,135,8.0,16.0,-999,-99.99,,,-99.99,,2013-03-18 22:13:00,
2013-03-18 18:23:00,31.0,-99.9,29.62,SE,135,8.0,16.0,-999,-99.99,,,-99.99,,2013-03-18 22:23:00,
2013-03-18 18:33:00,31.0,-99.9,29.62,SE,135,8.0,16.0,-999,-99.99,,,-99.99,,2013-03-18 22:33:00,
2013-03-18 18:40:00,30.0,-99.9,29.60,ESE,113,5.0,13.0,-999,-99.99,,,-99.99,,2013-03-18 22:40:00,
2013-03-18 19:03:00,30.0,-99.9,30.29,ESE,113,5.0,13.0,-999,-99.99,,,-99.99,,2013-03-18 23:03:00,
2013-03-18 19:13:00,30.0,-99.9,29.60,ESE,113,5.0,13.0,-999,-99.99,,,-99.99,,2013-03-18 23:13:00,
2013-03-18 19:23:00,30.0,-99.9,29.60,ESE,113,5.0,13.0,-999,-99.99,,,-99.99,,2013-03-18 23:23:00,
2013-03-18 19:33:00,30.0,-99.9,29.60,ESE,113,5.0,13.0,-999,-99.99,,,-99.99,,2013-03-18 23:33:00,
2013-03-18 19:40:00,30.0,-99.9,29.58,ESE,117,5.0,9.0,-999,-99.99,,,-99.99,,2013-03-18 23:40:00,
2013-03-18 20:03:00,30.0,-99.9,30.27,ESE,117,5.0,9.0,-999,-99.99,,,-99.99,,2013-03-19 00:03:00,
2013-03-18 20:12:00,30.0,-99.9,29.58,ESE,117,5.0,9.0,-999,-99.99,,,-99.99,,2013-03-19 00:12:00,
2013-03-18 20:23:00,30.0,-99.9,29.58,ESE,117,5.0,9.0,-999,-99.99,,,-99.99,,2013-03-19 00:23:00,
2013-03-18 20:33:00,30.0,-99.9,29.58,ESE,117,5.0,9.0,-999,-99.99,,,-99.99,,2013-03-19 00:33:00,
2013-03-18 21:02:00,30.0,-99.9,30.26,SE,134,4.0,8.0,-999,-99.99,,,-99.99,,2013-03-19 01:02:00,
2013-03-18 21:12:00,30.0,-99.9,29.57,SE,134,4.0,8.0,-999,-99.99,,,-99.99,,2013-03-19 01:12:00,
2013-03-18 21:23:00,30.0,-99.9,30.25,SSE,166,3.0,26.0,-999,-99.99,,,-99.99,,2013-03-19 01:23:00,
2013-03-18 21:33:00,30.0,-99.9,29.56,SSE,166,3.0,26.0,-999,-99.99,,,-99.99,,2013-03-19 01:33:00,
2013-03-18 21:53:00,30.0,-99.9,30.25,SSE,166,3.0,26.0,-999,-99.99,,,-99.99,,2013-03-19 01:53:00,
2013-03-18 22:03:00,30.0,-99.9,29.56,SSE,166,3.0,26.0,-999,-99.99,,,-99.99,,2013-03-19 02:03:00,
2013-03-18 22:13:00,30.0,-99.9,29.54,SSE,151,4.0,9.0,-999,-99.99,,,-99.99,,2013-03-19 02:13:00,
2013-03-18 22:23:00,30.0,-99.9,29.54,SSE,151,4.0,9.0,-999,-99.99,,,-99.99,,2013-03-19 02:23:00,
2013-03-18 22:33:00,30.0,-99.9,30.22,SE,145,4.0,11.0,-999,-99.99,,,-99.99,,2013-03-19 02:33:00,
2013-03-18 22:43:00,30.0,-99.9,30.22,SE,145,4.0,11.0,-999,-99.99,,,-99.99,,2013-03-19 02:43:00,
2013-03-18 22:53:00,30.0,-99.9,30.22,SE,145,4.0,11.0,-999,-99.99,,,-99.99,,2013-03-19 02:53:00,
2013-03-18 23:02:00,30.0,-99.9,30.22,SSE,162,5.0,9.0,-999,-99.99,,,-99.99,,2013-03-19 03:02:00,
2013-03-18 23:13:00,30.0,-99.9,29.53,SSE,162,5.0,9.0,-999,-99.99,,,-99.99,,2013-03-19 03:13:00,
2013-03-18 23:23:00,30.0,-99.9,30.21,South,183,5.0,12.0,-999,-99.99,,,-99.99,,2013-03-19 03:23:00,
2013-03-18 23:33:00,30.0,-99.9,29.52,South,183,5.0,12.0,-999,-99.99,,,-99.99,,2013-03-19 03:33:00,
2013-03-18 23:43:00,30.0,-99.9,29.52,South,183,5.0,12.0,-999,-99.99,,,-99.99,,2013-03-19 03:43:00,
2013-03-18 23:54:00,30.0,-99.9,29.52,South,183,5.0,12.0,-999,-99.99,,,-99.99,,2013-03-19 03:54:00,